Location: Nassau
(25.0830°N, 77.3500°W)
Time: 17:47:31
(UTC-05:00)

ISS - All Passes

Search period start: 27 February 2017 00:00
Search period end: 09 March 2017 00:00
Orbit: 399 x 408 km, 51.6° (Epoch: 28 February)

Date Brightness Start Highest point End Pass type
(mag) Time Alt. Az. Time Alt. Az. Time Alt. Az.
27 Feb - 06:10:27 10° SW 06:13:43 72° NW 06:17:00 10° NE visible
27 Feb - 14:21:26 10° NNW 14:24:12 25° NE 14:26:57 10° ESE daylight
27 Feb - 15:58:29 10° W 16:00:27 15° SW 16:02:24 10° SSW daylight
28 Feb - 05:18:07 10° SSW 05:21:14 41° SE 05:24:21 10° ENE visible
28 Feb - 06:56:40 10° WNW 06:57:48 11° NW 06:58:58 10° NNW daylight
28 Feb - 13:30:01 10° NNE 13:31:30 12° NE 13:32:59 10° ENE daylight
28 Feb - 15:05:01 10° WNW 15:08:02 36° SW 15:11:03 10° SSE daylight
01 Mar - 04:26:34 10° SSE 04:28:48 17° SE 04:31:03 10° E visible
01 Mar - 06:02:26 10° W 06:05:05 23° NW 06:07:46 10° N visible
01 Mar - 14:12:16 10° NW 14:15:33 83° NE 14:18:48 10° SE daylight
02 Mar - 05:09:16 10° SW 05:12:28 52° NW 05:15:41 10° NNE visible
02 Mar - 13:19:58 10° NNW 13:22:57 32° NE 13:25:55 10° ESE daylight
02 Mar - 14:57:58 10° WSW 14:59:07 11° SW 15:00:16 10° SW daylight
03 Mar - 04:16:42 10° SSW 04:19:55 57° SE 04:23:09 10° NE visible
03 Mar - 12:28:12 10° N 12:30:15 15° NE 12:32:18 10° E daylight
03 Mar - 14:03:52 10° WNW 14:06:41 27° SW 14:09:30 10° S daylight
04 Mar - 03:24:49 10° S 03:27:26 22° SE 03:30:03 10° ENE night (unlit)
04 Mar - 05:01:27 10° W 05:03:48 18° NW 05:06:09 10° N visible
04 Mar - 13:10:55 10° NW 13:14:11 72° SW 13:17:26 10° SE daylight
05 Mar - 04:08:01 10° WSW 04:11:06 39° NW 04:14:12 10° NNE visible
05 Mar - 12:18:27 10° NNW 12:21:35 42° NE 12:24:42 10° ESE daylight
06 Mar - 03:15:14 10° SW 03:18:29 79° SE 03:21:46 10° NE night (unlit)
06 Mar - 11:26:26 10° N 11:28:52 19° NE 11:31:19 10° E daylight
06 Mar - 13:02:42 10° WNW 13:05:13 20° SW 13:07:44 10° S daylight
07 Mar - 02:23:04 10° S 02:25:56 29° SE 02:28:50 10° ENE night (unlit)
07 Mar - 04:00:29 10° WNW 04:02:24 15° NW 04:04:20 10° N night (unlit)
07 Mar - 12:09:30 10° NW 12:12:42 52° SW 12:15:53 10° SSE daylight
08 Mar - 01:32:00 10° SSE 01:33:27 12° SE 01:34:54 10° E night (unlit)
08 Mar - 03:06:43 10° WSW 03:09:38 30° NW 03:12:34 10° NNE night (unlit)
08 Mar - 11:16:52 10° NNW 11:20:06 57° NE 11:23:18 10° SE daylight
